LPE2422 SPJC-SBPA

Flight info

Callsign LPE2422
Flight time 3h 48m
Altitude 33000
Route AKSOL UM548 BOMEL UM793 REPES UM548 SORSU/N0454F350 UM548 EGEXO DCT OBLUM DCT ROLOK DCT 260119S0552552W DCT EDMAR DCT NOBEL
Aircraft A321/M-SDE3FGHIRWY/LB1

Departure

Time 2026-04-27 21:31
Airport Jorge Chávez International Airport (SPJC)

Arrival

Time 2026-04-28 01:19
Airport Porto Alegre-Salgado Filho International Airport (SBPA)
Time Latitude Longitude Altitude Speed Heading
2026-04-27 21:31 -12.25992 -76.97017 8955 ft 290 kts 116°
2026-04-27 21:31 -12.26860 -76.95162 9511 ft 292 kts 115°
2026-04-27 21:31 -12.27741 -76.93284 10088 ft 294 kts 116°
2026-04-27 21:31 -12.28642 -76.91380 10493 ft 302 kts 116°
2026-04-27 21:32 -12.29576 -76.89423 10734 ft 316 kts 116°
2026-04-27 21:32 -12.30569 -76.87353 10975 ft 329 kts 116°
2026-04-27 21:32 -12.31594 -76.85220 11271 ft 339 kts 116°
2026-04-27 21:32 -12.32632 -76.83064 11771 ft 342 kts 116°
2026-04-27 21:33 -12.33693 -76.80862 12329 ft 343 kts 116°
2026-04-27 21:33 -12.34745 -76.78680 12854 ft 345 kts 116°
2026-04-27 21:33 -12.35806 -76.76481 13359 ft 347 kts 116°
2026-04-27 21:33 -12.36875 -76.74265 13858 ft 349 kts 116°
2026-04-27 21:34 -12.38025 -76.71880 14378 ft 352 kts 116°
2026-04-27 21:34 -12.39202 -76.69435 14882 ft 354 kts 116°
2026-04-27 21:34 -12.40408 -76.66928 15384 ft 357 kts 116°
2026-04-27 21:34 -12.41600 -76.64452 15878 ft 359 kts 116°
2026-04-27 21:35 -12.42799 -76.61962 16361 ft 362 kts 116°
2026-04-27 21:35 -12.44024 -76.59430 16826 ft 364 kts 116°
2026-04-27 21:35 -12.45246 -76.56908 17278 ft 367 kts 116°
2026-04-27 21:35 -12.46489 -76.54343 17740 ft 369 kts 116°
2026-04-27 21:36 -12.47706 -76.51832 18172 ft 371 kts 116°
2026-04-27 21:36 -12.48853 -76.49462 18556 ft 373 kts 116°
2026-04-27 21:36 -12.50007 -76.47076 18926 ft 376 kts 116°
2026-04-27 21:36 -12.51172 -76.44671 19300 ft 378 kts 116°
2026-04-27 21:37 -12.52339 -76.42258 19673 ft 380 kts 116°
2026-04-27 21:37 -12.53517 -76.39824 20043 ft 382 kts 116°
2026-04-27 21:37 -12.54695 -76.37389 20405 ft 384 kts 116°
2026-04-27 21:37 -12.55886 -76.34927 20763 ft 387 kts 116°
2026-04-27 21:38 -12.57072 -76.32473 21111 ft 389 kts 116°
2026-04-27 21:38 -12.58274 -76.29984 21447 ft 391 kts 116°
2026-04-27 21:38 -12.59532 -76.27382 21798 ft 393 kts 116°
2026-04-27 21:38 -12.60735 -76.24893 22133 ft 395 kts 116°
2026-04-27 21:39 -12.61954 -76.22369 22465 ft 397 kts 116°
2026-04-27 21:39 -12.63178 -76.19834 22790 ft 399 kts 116°
2026-04-27 21:39 -12.64478 -76.17142 23130 ft 401 kts 116°
2026-04-27 21:39 -12.65787 -76.14429 23466 ft 403 kts 116°
2026-04-27 21:40 -12.67120 -76.11666 23798 ft 405 kts 116°
2026-04-27 21:40 -12.68448 -76.08913 24121 ft 407 kts 116°
2026-04-27 21:40 -12.69708 -76.06303 24413 ft 409 kts 116°
2026-04-27 21:40 -12.70968 -76.03687 24680 ft 411 kts 116°
2026-04-27 21:41 -12.72226 -76.01077 24947 ft 413 kts 116°
2026-04-27 21:41 -12.73656 -75.98512 25196 ft 416 kts 127°
2026-04-27 21:41 -12.75865 -75.96280 25453 ft 418 kts 145°
2026-04-27 21:41 -12.78650 -75.94820 25723 ft 419 kts 160°
2026-04-27 21:42 -12.81671 -75.93765 26038 ft 420 kts 162°
2026-04-27 21:42 -12.84757 -75.92748 26314 ft 423 kts 162°
2026-04-27 21:42 -12.87602 -75.91803 26560 ft 425 kts 162°
2026-04-27 21:42 -12.90363 -75.90537 26754 ft 428 kts 145°
2026-04-27 21:43 -12.92616 -75.88358 27008 ft 428 kts 131°
2026-04-27 21:43 -12.94596 -75.85899 27284 ft 430 kts 129°
2026-04-27 21:43 -12.96607 -75.83345 27504 ft 432 kts 129°
2026-04-27 21:43 -12.98509 -75.80972 27721 ft 434 kts 130°
2026-04-27 21:44 -13.00449 -75.78595 27896 ft 436 kts 130°
2026-04-27 21:44 -13.02455 -75.76170 28120 ft 438 kts 130°
2026-04-27 21:44 -13.04544 -75.73666 28385 ft 439 kts 131°
2026-04-27 21:44 -13.06668 -75.71130 28577 ft 442 kts 131°
2026-04-27 21:45 -13.10832 -75.66179 28872 ft 448 kts 130°
2026-04-27 21:45 -13.12916 -75.63704 29097 ft 449 kts 131°
2026-04-27 21:45 -13.14963 -75.61277 29254 ft 451 kts 131°
2026-04-27 21:46 -13.17014 -75.58844 29421 ft 453 kts 131°
2026-04-27 21:46 -13.19058 -75.56417 29593 ft 455 kts 131°
2026-04-27 21:46 -13.21160 -75.53920 29832 ft 455 kts 131°
2026-04-27 21:46 -13.23245 -75.51442 30081 ft 455 kts 131°
2026-04-27 21:47 -13.25360 -75.48927 30326 ft 454 kts 131°
2026-04-27 21:47 -13.27450 -75.46440 30575 ft 454 kts 131°
2026-04-27 21:47 -13.29536 -75.43960 30842 ft 453 kts 131°
2026-04-27 21:47 -13.31640 -75.41454 31099 ft 452 kts 131°
2026-04-27 21:48 -13.33755 -75.38936 31340 ft 451 kts 131°
2026-04-27 21:48 -13.35795 -75.36506 31566 ft 451 kts 131°
2026-04-27 21:48 -13.37837 -75.34074 31790 ft 450 kts 131°
2026-04-27 21:48 -13.39895 -75.31622 32027 ft 449 kts 131°
2026-04-27 21:49 -13.41925 -75.29203 32256 ft 448 kts 131°
2026-04-27 21:49 -13.43957 -75.26779 32470 ft 448 kts 131°
2026-04-27 21:49 -13.45959 -75.24392 32669 ft 447 kts 131°
2026-04-27 21:49 -13.48003 -75.21954 32882 ft 446 kts 131°
2026-04-27 21:50 -13.50011 -75.19559 33034 ft 446 kts 131°
2026-04-27 21:50 -13.52043 -75.17133 33040 ft 445 kts 131°
2026-04-27 21:50 -13.56084 -75.12308 33045 ft 445 kts 131°
2026-04-27 21:51 -13.60102 -75.07508 33052 ft 445 kts 131°
2026-04-27 21:51 -13.64255 -75.02544 33083 ft 445 kts 131°
2026-04-27 21:52 -13.68370 -74.97620 33127 ft 445 kts 131°
2026-04-27 21:52 -13.72380 -74.92821 33179 ft 445 kts 131°
2026-04-27 21:53 -13.76411 -74.87994 33234 ft 444 kts 131°
2026-04-27 21:53 -13.80427 -74.83182 33275 ft 444 kts 131°
2026-04-27 21:54 -13.84611 -74.78165 33281 ft 444 kts 131°
2026-04-27 21:54 -13.88705 -74.73254 33267 ft 444 kts 131°
2026-04-27 21:55 -13.93009 -74.68087 33245 ft 444 kts 131°
2026-04-27 21:55 -13.97057 -74.63226 33225 ft 444 kts 131°
2026-04-27 21:56 -14.03460 -74.55529 33212 ft 445 kts 131°
2026-04-27 21:57 -14.07857 -74.50240 33210 ft 444 kts 131°
2026-04-27 21:57 -14.12214 -74.44997 33209 ft 444 kts 131°
2026-04-27 21:58 -14.16524 -74.39803 33204 ft 445 kts 131°
2026-04-27 21:58 -14.20912 -74.34515 33209 ft 444 kts 131°
2026-04-27 21:59 -14.25292 -74.29235 33209 ft 444 kts 131°
2026-04-27 21:59 -14.29336 -74.24356 33209 ft 444 kts 131°
2026-04-27 22:00 -14.33344 -74.19517 33209 ft 444 kts 131°
2026-04-27 22:00 -14.37434 -74.14574 33210 ft 444 kts 131°
2026-04-27 22:01 -14.41636 -74.09497 33224 ft 444 kts 131°
2026-04-27 22:01 -14.45662 -74.04627 33256 ft 445 kts 131°
2026-04-27 22:02 -14.49943 -73.99448 33298 ft 445 kts 131°
2026-04-27 22:02 -14.53960 -73.94167 33344 ft 445 kts 125°
2026-04-27 22:03 -14.57534 -73.88732 33391 ft 445 kts 124°
2026-04-27 22:03 -14.61065 -73.83324 33425 ft 445 kts 124°
2026-04-27 22:04 -14.64872 -73.77506 33441 ft 445 kts 124°
2026-04-27 22:04 -14.68664 -73.71717 33447 ft 446 kts 124°
2026-04-27 22:05 -14.72451 -73.65934 33450 ft 446 kts 124°
2026-04-27 22:05 -14.76190 -73.60220 33450 ft 446 kts 124°
2026-04-27 22:06 -14.79902 -73.54545 33451 ft 446 kts 124°
2026-04-27 22:06 -14.83582 -73.48914 33450 ft 446 kts 124°
2026-04-27 22:07 -14.87318 -73.43192 33450 ft 446 kts 124°
2026-04-27 22:07 -14.90995 -73.37556 33450 ft 447 kts 124°
2026-04-27 22:08 -14.94547 -73.32110 33448 ft 447 kts 124°
2026-04-27 22:08 -14.98138 -73.26601 33443 ft 447 kts 124°
2026-04-27 22:09 -15.01623 -73.21249 33438 ft 448 kts 124°
2026-04-27 22:09 -15.05289 -73.15614 33433 ft 448 kts 124°
2026-04-27 22:10 -15.08858 -73.10126 33428 ft 448 kts 124°
2026-04-27 22:10 -15.12538 -73.04463 33427 ft 449 kts 124°
2026-04-27 22:11 -15.16219 -72.98795 33426 ft 449 kts 124°
2026-04-27 22:11 -15.19693 -72.93439 33426 ft 449 kts 124°
2026-04-27 22:12 -15.23150 -72.88109 33426 ft 449 kts 124°
2026-04-27 22:12 -15.26628 -72.82742 33426 ft 449 kts 124°
2026-04-27 22:13 -15.30098 -72.77383 33426 ft 450 kts 124°
2026-04-27 22:13 -15.33563 -72.72028 33426 ft 450 kts 124°
2026-04-27 22:14 -15.37047 -72.66640 33426 ft 450 kts 124°
2026-04-27 22:14 -15.40503 -72.61292 33426 ft 450 kts 124°
2026-04-27 22:15 -15.43986 -72.55898 33426 ft 450 kts 124°
2026-04-27 22:15 -15.47457 -72.50520 33426 ft 451 kts 124°
2026-04-27 22:16 -15.50936 -72.45126 33426 ft 451 kts 124°
2026-04-27 22:16 -15.54409 -72.39738 33426 ft 451 kts 124°
2026-04-27 22:17 -15.57883 -72.34344 33422 ft 451 kts 124°
2026-04-27 22:17 -15.61361 -72.28938 33416 ft 451 kts 124°
2026-04-27 22:18 -15.64874 -72.23477 33421 ft 453 kts 124°
2026-04-27 22:18 -15.68459 -72.17901 33424 ft 454 kts 124°
2026-04-27 22:19 -15.71979 -72.12421 33416 ft 454 kts 124°
2026-04-27 22:19 -15.75499 -72.06929 33405 ft 454 kts 124°
2026-04-27 22:20 -15.78970 -72.01507 33393 ft 454 kts 124°
2026-04-27 22:20 -15.82460 -71.96054 33381 ft 453 kts 124°
2026-04-27 22:21 -15.85945 -71.90608 33375 ft 453 kts 124°
2026-04-27 22:21 -15.89433 -71.85154 33373 ft 453 kts 124°
2026-04-27 22:22 -15.92909 -71.79715 33372 ft 453 kts 124°
2026-04-27 22:22 -15.96465 -71.74148 33372 ft 453 kts 124°
2026-04-27 22:23 -15.99962 -71.68667 33372 ft 453 kts 124°
2026-04-27 22:23 -16.03427 -71.63234 33372 ft 453 kts 124°
2026-04-27 22:24 -16.06903 -71.57780 33372 ft 453 kts 124°
2026-04-27 22:24 -16.10373 -71.52329 33372 ft 454 kts 124°
2026-04-27 22:25 -16.13862 -71.46847 33372 ft 454 kts 124°
2026-04-27 22:25 -16.17411 -71.41266 33372 ft 454 kts 124°
2026-04-27 22:26 -16.20904 -71.35770 33372 ft 454 kts 124°
2026-04-27 22:26 -16.24368 -71.30313 33372 ft 454 kts 124°
2026-04-27 22:27 -16.27875 -71.24785 33372 ft 454 kts 124°
2026-04-27 22:27 -16.31336 -71.19328 33372 ft 455 kts 124°
2026-04-27 22:28 -16.34818 -71.13835 33372 ft 455 kts 124°
2026-04-27 22:28 -16.38284 -71.08356 33372 ft 454 kts 124°
2026-04-27 22:29 -16.41802 -71.02785 33372 ft 454 kts 124°
2026-04-27 22:29 -16.45426 -70.97048 33371 ft 455 kts 124°
2026-04-27 22:30 -16.49017 -70.91361 33357 ft 455 kts 124°
2026-04-27 22:30 -16.52498 -70.85848 33345 ft 455 kts 124°
2026-04-27 22:31 -16.55958 -70.80360 33334 ft 455 kts 124°
2026-04-27 22:31 -16.59419 -70.74870 33327 ft 455 kts 124°
2026-04-27 22:32 -16.62898 -70.69335 33466 ft 457 kts 124°
2026-04-27 22:32 -16.64631 -70.66573 33690 ft 456 kts 124°
2026-04-27 22:32 -16.66362 -70.63820 33879 ft 456 kts 124°
2026-04-27 22:32 -16.68097 -70.61060 34014 ft 458 kts 124°
2026-04-27 22:33 -16.69837 -70.58292 34151 ft 459 kts 124°
2026-04-27 22:33 -16.71702 -70.55322 34307 ft 459 kts 124°
2026-04-27 22:33 -16.73595 -70.52306 34477 ft 460 kts 124°
2026-04-27 22:33 -16.75505 -70.49263 34640 ft 460 kts 124°
2026-04-27 22:34 -16.77438 -70.46181 34783 ft 461 kts 124°
2026-04-27 22:34 -16.79341 -70.43145 34928 ft 461 kts 124°
2026-04-27 22:34 -16.81257 -70.40091 35070 ft 462 kts 124°
2026-04-27 22:34 -16.83176 -70.37028 35217 ft 462 kts 124°
2026-04-27 22:35 -16.84968 -70.34168 35288 ft 464 kts 124°
2026-04-27 22:35 -16.88510 -70.28507 35271 ft 465 kts 124°
2026-04-27 22:36 -16.92045 -70.22855 35236 ft 465 kts 124°
2026-04-27 22:36 -16.95803 -70.16837 35195 ft 465 kts 124°
2026-04-27 22:37 -16.99626 -70.10712 35157 ft 466 kts 124°
2026-04-27 22:37 -17.03236 -70.04923 35139 ft 466 kts 124°
2026-04-27 22:38 -17.06816 -69.99178 35153 ft 466 kts 124°
2026-04-27 22:38 -17.10403 -69.93415 35191 ft 467 kts 124°
2026-04-27 22:39 -17.13920 -69.87763 35237 ft 467 kts 124°
2026-04-27 22:39 -17.17472 -69.82049 35292 ft 468 kts 124°
2026-04-27 22:40 -17.21012 -69.76351 35337 ft 467 kts 124°
2026-04-27 22:40 -17.24718 -69.70380 35360 ft 467 kts 124°
2026-04-27 22:41 -17.28374 -69.64482 35367 ft 468 kts 124°
2026-04-27 22:41 -17.31903 -69.58699 35354 ft 468 kts 123°
2026-04-27 22:42 -17.35348 -69.52917 35304 ft 468 kts 123°
2026-04-27 22:42 -17.38797 -69.47136 35236 ft 468 kts 123°
2026-04-27 22:43 -17.42422 -69.41070 35157 ft 468 kts 123°
2026-04-27 22:43 -17.45902 -69.35243 35081 ft 468 kts 123°
2026-04-27 22:44 -17.49380 -69.29451 35031 ft 468 kts 124°
2026-04-27 22:44 -17.52892 -69.23740 35010 ft 468 kts 124°
2026-04-27 22:45 -17.56419 -69.18010 35002 ft 468 kts 124°
2026-04-27 22:45 -17.59917 -69.12315 34999 ft 468 kts 124°
2026-04-27 22:46 -17.63456 -69.06543 34999 ft 468 kts 124°
2026-04-27 22:46 -17.67080 -69.00626 34998 ft 468 kts 124°
2026-04-27 22:47 -17.70776 -68.94585 34998 ft 468 kts 124°
2026-04-27 22:47 -17.74552 -68.88409 34998 ft 469 kts 124°
2026-04-27 22:48 -17.78344 -68.82201 34998 ft 468 kts 124°
2026-04-27 22:48 -17.81934 -68.76316 34998 ft 469 kts 124°
2026-04-27 22:49 -17.85439 -68.70568 34998 ft 469 kts 124°
2026-04-27 22:49 -17.89118 -68.64528 34998 ft 469 kts 124°
2026-04-27 22:50 -17.93010 -68.58134 34998 ft 469 kts 124°
2026-04-27 22:50 -17.96865 -68.51794 35014 ft 469 kts 124°
2026-04-27 22:51 -18.00744 -68.45412 35056 ft 470 kts 124°
2026-04-27 22:51 -18.04512 -68.39209 35113 ft 471 kts 125°
2026-04-27 22:52 -18.08373 -68.33098 35175 ft 471 kts 126°
2026-04-27 22:52 -18.12218 -68.27066 35227 ft 470 kts 126°
2026-04-27 22:53 -18.15822 -68.21394 35249 ft 470 kts 125°
2026-04-27 22:53 -18.19461 -68.15653 35258 ft 469 kts 125°
2026-04-27 22:54 -18.23058 -68.09972 35269 ft 470 kts 125°
2026-04-27 22:54 -18.26686 -68.04237 35299 ft 470 kts 125°
2026-04-27 22:55 -18.30279 -67.98553 35343 ft 469 kts 125°
2026-04-27 22:55 -18.33897 -67.92823 35391 ft 470 kts 126°
2026-04-27 22:56 -18.37735 -67.86742 35439 ft 470 kts 125°
2026-04-27 22:56 -18.41639 -67.80547 35463 ft 470 kts 125°
2026-04-27 22:57 -18.45423 -67.74538 35472 ft 470 kts 126°
2026-04-27 22:57 -18.49351 -67.68295 35476 ft 470 kts 126°
2026-04-27 22:58 -18.52983 -67.62518 35476 ft 470 kts 126°
2026-04-27 22:58 -18.56962 -67.56185 35476 ft 471 kts 126°
2026-04-27 22:59 -18.60728 -67.50184 35476 ft 471 kts 126°
2026-04-27 22:59 -18.64318 -67.44432 35472 ft 472 kts 126°
2026-04-27 23:00 -18.69951 -67.35380 35464 ft 472 kts 125°
2026-04-27 23:00 -18.73744 -67.29281 35457 ft 473 kts 125°
2026-04-27 23:01 -18.77338 -67.23499 35454 ft 473 kts 125°
2026-04-27 23:01 -18.80938 -67.17703 35453 ft 473 kts 125°
2026-04-27 23:02 -18.84542 -67.11894 35448 ft 473 kts 125°
2026-04-27 23:02 -18.88201 -67.05994 35438 ft 473 kts 125°
2026-04-27 23:03 -18.92044 -66.99788 35426 ft 474 kts 125°
2026-04-27 23:03 -18.95708 -66.93864 35413 ft 474 kts 125°
2026-04-27 23:04 -18.99327 -66.88010 35403 ft 475 kts 125°
2026-04-27 23:04 -19.02912 -66.82204 35399 ft 475 kts 125°
2026-04-27 23:05 -19.06516 -66.76363 35398 ft 475 kts 125°
2026-04-27 23:05 -19.10171 -66.70433 35398 ft 475 kts 125°
2026-04-27 23:06 -19.14174 -66.63935 35398 ft 475 kts 125°
2026-04-27 23:06 -19.18152 -66.57465 35398 ft 476 kts 125°
2026-04-27 23:07 -19.22145 -66.50969 35398 ft 476 kts 125°
2026-04-27 23:07 -19.26084 -66.44555 35401 ft 476 kts 125°
2026-04-27 23:08 -19.29688 -66.38677 35405 ft 477 kts 125°
2026-04-27 23:08 -19.33278 -66.32821 35409 ft 477 kts 125°
2026-04-27 23:09 -19.36892 -66.26919 35416 ft 477 kts 125°
2026-04-27 23:09 -19.40489 -66.21035 35421 ft 477 kts 125°
2026-04-27 23:10 -19.44099 -66.15173 35418 ft 478 kts 125°
2026-04-27 23:10 -19.47742 -66.09267 35410 ft 478 kts 125°
2026-04-27 23:11 -19.51421 -66.03300 35399 ft 478 kts 125°
2026-04-27 23:11 -19.55132 -65.97303 35389 ft 478 kts 125°
2026-04-27 23:12 -19.59064 -65.90942 35380 ft 478 kts 126°
2026-04-27 23:12 -19.63020 -65.84534 35375 ft 479 kts 126°
2026-04-27 23:13 -19.66907 -65.78089 35373 ft 479 kts 124°
2026-04-27 23:13 -19.70766 -65.71570 35372 ft 479 kts 124°
2026-04-27 23:14 -19.74577 -65.65149 35372 ft 479 kts 124°
2026-04-27 23:14 -19.78432 -65.58662 35372 ft 479 kts 124°
2026-04-27 23:15 -19.82182 -65.52343 35372 ft 478 kts 124°
2026-04-27 23:15 -19.85711 -65.46404 35372 ft 478 kts 124°
2026-04-27 23:16 -19.89282 -65.40412 35372 ft 478 kts 124°
2026-04-27 23:16 -19.92823 -65.34464 35371 ft 478 kts 124°
2026-04-27 23:17 -19.96363 -65.28516 35372 ft 478 kts 124°
2026-04-27 23:17 -19.99905 -65.22554 35372 ft 478 kts 124°
2026-04-27 23:18 -20.03495 -65.16509 35372 ft 480 kts 124°
2026-04-27 23:18 -20.07418 -65.09895 35372 ft 480 kts 124°
2026-04-27 23:19 -20.11311 -65.03326 35372 ft 480 kts 124°
2026-04-27 23:19 -20.15241 -64.96686 35363 ft 480 kts 124°
2026-04-27 23:20 -20.19164 -64.90093 35334 ft 479 kts 125°
2026-04-27 23:20 -20.22973 -64.83698 35296 ft 479 kts 125°
2026-04-27 23:21 -20.26845 -64.77188 35254 ft 479 kts 125°
2026-04-27 23:21 -20.30737 -64.70639 35227 ft 479 kts 125°
2026-04-27 23:22 -20.34667 -64.64014 35215 ft 479 kts 125°
2026-04-27 23:22 -20.38508 -64.57558 35208 ft 479 kts 125°
2026-04-27 23:23 -20.42053 -64.51598 35203 ft 478 kts 125°
2026-04-27 23:23 -20.45670 -64.45512 35196 ft 477 kts 125°
2026-04-27 23:24 -20.49434 -64.39175 35189 ft 477 kts 125°
2026-04-27 23:24 -20.53328 -64.32610 35182 ft 477 kts 124°
2026-04-27 23:25 -20.56923 -64.26550 35182 ft 478 kts 125°
2026-04-27 23:25 -20.60467 -64.20588 35181 ft 478 kts 125°
2026-04-27 23:26 -20.64015 -64.14615 35181 ft 479 kts 125°
2026-04-27 23:26 -20.67686 -64.08441 35181 ft 479 kts 125°
2026-04-27 23:27 -20.71468 -64.02125 35179 ft 479 kts 125°
2026-04-27 23:27 -20.75430 -63.95512 35172 ft 479 kts 125°
2026-04-27 23:28 -20.79018 -63.89514 35159 ft 480 kts 125°
2026-04-27 23:28 -20.82599 -63.83520 35146 ft 480 kts 125°
2026-04-27 23:29 -20.86191 -63.77502 35134 ft 481 kts 125°
2026-04-27 23:29 -20.90059 -63.71014 35128 ft 481 kts 125°
2026-04-27 23:30 -20.94067 -63.64284 35127 ft 482 kts 125°
2026-04-27 23:30 -20.97823 -63.57968 35127 ft 482 kts 125°
2026-04-27 23:31 -21.01392 -63.51961 35124 ft 482 kts 125°
2026-04-27 23:31 -21.05210 -63.45528 35120 ft 482 kts 125°
2026-04-27 23:32 -21.09207 -63.38785 35114 ft 482 kts 125°
2026-04-27 23:32 -21.13165 -63.32102 35106 ft 481 kts 125°
2026-04-27 23:33 -21.17134 -63.25392 35103 ft 482 kts 125°
2026-04-27 23:33 -21.20922 -63.18981 35101 ft 482 kts 125°
2026-04-27 23:34 -21.24632 -63.12694 35100 ft 482 kts 125°
2026-04-27 23:34 -21.28371 -63.06353 35101 ft 483 kts 125°
2026-04-27 23:35 -21.32128 -63.00012 35104 ft 483 kts 126°
2026-04-27 23:35 -21.35991 -62.93683 35109 ft 483 kts 126°
2026-04-27 23:36 -21.39793 -62.87463 35116 ft 484 kts 126°
2026-04-27 23:36 -21.43474 -62.81421 35122 ft 485 kts 126°
2026-04-27 23:37 -21.47273 -62.75170 35124 ft 485 kts 126°
2026-04-27 23:37 -21.51098 -62.68872 35125 ft 485 kts 126°
2026-04-27 23:38 -21.54890 -62.62623 35125 ft 486 kts 126°
2026-04-27 23:38 -21.58703 -62.56329 35125 ft 487 kts 126°
2026-04-27 23:39 -21.62567 -62.49948 35125 ft 487 kts 126°
2026-04-27 23:39 -21.66407 -62.43590 35125 ft 487 kts 126°
2026-04-27 23:40 -21.70447 -62.36877 35125 ft 487 kts 126°
2026-04-27 23:40 -21.74467 -62.30199 35124 ft 487 kts 126°
2026-04-27 23:41 -21.78428 -62.23610 35125 ft 488 kts 126°
2026-04-27 23:41 -21.82415 -62.16970 35125 ft 488 kts 126°
2026-04-27 23:42 -21.86386 -62.10348 35124 ft 489 kts 126°
2026-04-27 23:42 -21.90350 -62.03732 35118 ft 489 kts 126°
2026-04-27 23:43 -21.94359 -61.97033 35106 ft 489 kts 126°
2026-04-27 23:43 -21.98352 -61.90351 35093 ft 489 kts 126°
2026-04-27 23:44 -22.02321 -61.83703 35082 ft 489 kts 126°
2026-04-27 23:44 -22.06327 -61.76982 35076 ft 489 kts 126°
2026-04-27 23:45 -22.10251 -61.70393 35072 ft 489 kts 126°
2026-04-27 23:45 -22.14024 -61.64046 35073 ft 490 kts 126°
2026-04-27 23:46 -22.17826 -61.57647 35073 ft 490 kts 126°
2026-04-27 23:46 -22.21658 -61.51189 35073 ft 490 kts 126°
2026-04-27 23:47 -22.25571 -61.44584 35073 ft 490 kts 126°
2026-04-27 23:47 -22.29371 -61.38164 35073 ft 490 kts 126°
2026-04-27 23:48 -22.33346 -61.31442 35070 ft 491 kts 126°
2026-04-27 23:48 -22.37225 -61.24869 35072 ft 492 kts 126°
2026-04-27 23:49 -22.41181 -61.18159 35072 ft 492 kts 126°
2026-04-27 23:49 -22.45093 -61.11516 35070 ft 492 kts 126°
2026-04-27 23:50 -22.49065 -61.04765 35066 ft 493 kts 126°
2026-04-27 23:50 -22.52924 -60.98194 35059 ft 493 kts 126°
2026-04-27 23:51 -22.56703 -60.91751 35052 ft 493 kts 126°
2026-04-27 23:51 -22.60616 -60.85073 35048 ft 494 kts 126°
2026-04-27 23:52 -22.64542 -60.78365 35046 ft 494 kts 126°
2026-04-27 23:52 -22.68432 -60.71709 35046 ft 493 kts 126°
2026-04-27 23:53 -22.72091 -60.65443 35046 ft 494 kts 126°
2026-04-27 23:53 -22.75744 -60.59176 35045 ft 494 kts 126°
2026-04-27 23:54 -22.79455 -60.52803 35046 ft 495 kts 126°
2026-04-27 23:54 -22.83260 -60.46261 35046 ft 495 kts 126°
2026-04-27 23:55 -22.86950 -60.39910 35046 ft 495 kts 126°
2026-04-27 23:55 -22.90997 -60.32939 35043 ft 495 kts 125°
2026-04-27 23:56 -22.94900 -60.26205 35046 ft 496 kts 125°
2026-04-27 23:56 -22.98938 -60.19758 35046 ft 494 kts 130°
2026-04-27 23:57 -23.03180 -60.13575 35048 ft 494 kts 131°
2026-04-27 23:57 -23.07460 -60.07354 35053 ft 495 kts 130°
2026-04-27 23:58 -23.11697 -60.01171 35059 ft 495 kts 130°
2026-04-27 23:58 -23.16192 -59.94594 35063 ft 496 kts 130°
2026-04-27 23:59 -23.20494 -59.88284 35069 ft 496 kts 130°
2026-04-27 23:59 -23.24623 -59.82228 35069 ft 497 kts 130°
2026-04-28 00:00 -23.29012 -59.75777 35070 ft 497 kts 130°
2026-04-28 00:00 -23.33126 -59.69729 35068 ft 497 kts 131°
2026-04-28 00:01 -23.37499 -59.63291 35065 ft 497 kts 130°
2026-04-28 00:01 -23.41986 -59.56671 35068 ft 497 kts 130°
2026-04-28 00:02 -23.46481 -59.50033 35070 ft 498 kts 131°
2026-04-28 00:02 -23.51008 -59.43342 35071 ft 498 kts 131°
2026-04-28 00:03 -23.55532 -59.36647 35071 ft 498 kts 130°
2026-04-28 00:03 -23.60025 -59.29987 35070 ft 498 kts 130°
2026-04-28 00:04 -23.66818 -59.19896 35071 ft 498 kts 130°
2026-04-28 00:05 -23.71080 -59.13556 35071 ft 498 kts 130°
2026-04-28 00:05 -23.75156 -59.07485 35070 ft 498 kts 130°
2026-04-28 00:06 -23.79254 -59.01373 35071 ft 498 kts 130°
2026-04-28 00:06 -23.83770 -58.94635 35074 ft 499 kts 130°
2026-04-28 00:07 -23.88306 -58.87853 35079 ft 499 kts 130°
2026-04-28 00:07 -23.92372 -58.81765 35086 ft 500 kts 130°
2026-04-28 00:08 -23.96481 -58.75606 35093 ft 500 kts 130°
2026-04-28 00:08 -24.00562 -58.69482 35096 ft 500 kts 130°
2026-04-28 00:09 -24.04671 -58.63304 35092 ft 504 kts 130°
2026-04-28 00:09 -24.08763 -58.57152 35077 ft 504 kts 130°
2026-04-28 00:10 -24.12929 -58.50885 35056 ft 504 kts 130°
2026-04-28 00:10 -24.17017 -58.44709 35030 ft 503 kts 130°
2026-04-28 00:11 -24.21263 -58.38293 35011 ft 503 kts 130°
2026-04-28 00:11 -24.25828 -58.31393 35000 ft 504 kts 129°
2026-04-28 00:12 -24.30274 -58.24662 34999 ft 504 kts 129°
2026-04-28 00:12 -24.34793 -58.17809 34999 ft 504 kts 129°
2026-04-28 00:13 -24.39305 -58.10961 34999 ft 504 kts 129°
2026-04-28 00:13 -24.43556 -58.04499 34999 ft 504 kts 129°
2026-04-28 00:14 -24.47641 -57.98286 35008 ft 504 kts 129°
2026-04-28 00:14 -24.51718 -57.92063 35028 ft 505 kts 129°
2026-04-28 00:15 -24.55789 -57.85782 35054 ft 505 kts 129°
2026-04-28 00:15 -24.59853 -57.79506 35078 ft 506 kts 129°
2026-04-28 00:16 -24.64027 -57.73059 35091 ft 506 kts 129°
2026-04-28 00:16 -24.68533 -57.66097 35096 ft 507 kts 129°
2026-04-28 00:17 -24.73016 -57.59158 35098 ft 508 kts 129°
2026-04-28 00:17 -24.77530 -57.52164 35098 ft 509 kts 129°
2026-04-28 00:18 -24.81938 -57.45319 35099 ft 510 kts 129°
2026-04-28 00:18 -24.86423 -57.38347 35098 ft 510 kts 129°
2026-04-28 00:19 -24.90719 -57.31662 35096 ft 511 kts 129°
2026-04-28 00:19 -24.94795 -57.25309 35099 ft 512 kts 129°
2026-04-28 00:20 -24.98910 -57.18886 35099 ft 512 kts 129°
2026-04-28 00:20 -25.03167 -57.12234 35099 ft 513 kts 128°
2026-04-28 00:21 -25.07612 -57.05278 35099 ft 513 kts 128°
2026-04-28 00:21 -25.11775 -56.98751 35098 ft 513 kts 128°
2026-04-28 00:22 -25.15967 -56.92173 35099 ft 514 kts 128°
2026-04-28 00:22 -25.20267 -56.85415 35098 ft 514 kts 128°
2026-04-28 00:23 -25.24675 -56.78480 35099 ft 514 kts 129°
2026-04-28 00:23 -25.29208 -56.71339 35099 ft 514 kts 129°
2026-04-28 00:24 -25.33603 -56.64404 35099 ft 515 kts 129°
2026-04-28 00:24 -25.37574 -56.57791 35099 ft 517 kts 125°
2026-04-28 00:25 -25.41730 -56.50322 35099 ft 518 kts 124°
2026-04-28 00:25 -25.45844 -56.42905 35099 ft 518 kts 125°
2026-04-28 00:26 -25.50051 -56.35340 35098 ft 519 kts 125°
2026-04-28 00:26 -25.54261 -56.27768 35098 ft 519 kts 124°
2026-04-28 00:27 -25.58511 -56.20109 35099 ft 520 kts 124°
2026-04-28 00:27 -25.62709 -56.12533 35098 ft 520 kts 124°
2026-04-28 00:28 -25.66896 -56.04965 35099 ft 521 kts 124°
2026-04-28 00:28 -25.71052 -55.97439 35099 ft 521 kts 124°
2026-04-28 00:29 -25.75283 -55.89767 35099 ft 521 kts 124°
2026-04-28 00:29 -25.79442 -55.82214 35099 ft 521 kts 124°
2026-04-28 00:30 -25.83462 -55.74898 35099 ft 521 kts 124°
2026-04-28 00:30 -25.87482 -55.67577 35099 ft 521 kts 124°
2026-04-28 00:31 -25.91237 -55.60727 35099 ft 522 kts 124°
2026-04-28 00:31 -25.95001 -55.53847 35099 ft 521 kts 124°
2026-04-28 00:32 -25.99064 -55.46412 35099 ft 521 kts 124°
2026-04-28 00:32 -26.03297 -55.38842 35097 ft 523 kts 127°
2026-04-28 00:33 -26.07716 -55.31406 35096 ft 524 kts 127°
2026-04-28 00:33 -26.12134 -55.23989 35097 ft 525 kts 127°
2026-04-28 00:34 -26.16446 -55.16721 35099 ft 526 kts 127°
2026-04-28 00:34 -26.20796 -55.09359 35099 ft 526 kts 127°
2026-04-28 00:35 -26.25124 -55.02023 35099 ft 526 kts 127°
2026-04-28 00:35 -26.29223 -54.95070 35099 ft 527 kts 126°
2026-04-28 00:36 -26.33354 -54.88048 35099 ft 527 kts 126°
2026-04-28 00:36 -26.37445 -54.81081 35099 ft 527 kts 126°
2026-04-28 00:37 -26.41726 -54.73782 35099 ft 527 kts 126°
2026-04-28 00:37 -26.46143 -54.66242 35099 ft 527 kts 126°
2026-04-28 00:38 -26.50588 -54.58636 35099 ft 527 kts 126°
2026-04-28 00:38 -26.54944 -54.51170 35099 ft 527 kts 126°
2026-04-28 00:39 -26.59118 -54.44006 35099 ft 527 kts 126°
2026-04-28 00:39 -26.63327 -54.36771 35099 ft 527 kts 126°
2026-04-28 00:40 -26.67630 -54.29364 35097 ft 528 kts 126°
2026-04-28 00:40 -26.71996 -54.21833 35099 ft 528 kts 126°
2026-04-28 00:41 -26.76119 -54.14710 35101 ft 529 kts 126°
2026-04-28 00:41 -26.80107 -54.07810 35106 ft 529 kts 126°
2026-04-28 00:42 -26.84096 -54.00897 35114 ft 530 kts 126°
2026-04-28 00:42 -26.88211 -53.93759 35120 ft 531 kts 126°
2026-04-28 00:43 -26.92669 -53.86008 35125 ft 532 kts 126°
2026-04-28 00:43 -26.97063 -53.78355 35130 ft 532 kts 126°
2026-04-28 00:44 -27.01490 -53.70631 35137 ft 533 kts 126°
2026-04-28 00:44 -27.05869 -53.62980 35145 ft 534 kts 126°
2026-04-28 00:45 -27.10329 -53.55174 35149 ft 534 kts 126°
2026-04-28 00:45 -27.14723 -53.47475 35152 ft 535 kts 126°
2026-04-28 00:46 -27.18739 -53.40425 35154 ft 536 kts 126°
2026-04-28 00:46 -27.22771 -53.33438 35148 ft 535 kts 128°
2026-04-28 00:47 -27.27471 -53.27028 35152 ft 529 kts 140°
2026-04-28 00:47 -27.32951 -53.21699 35150 ft 519 kts 151°
2026-04-28 00:48 -27.38923 -53.17216 35145 ft 515 kts 155°
2026-04-28 00:48 -27.44932 -53.12828 35137 ft 516 kts 155°
2026-04-28 00:49 -27.50907 -53.08399 35147 ft 517 kts 154°
2026-04-28 00:49 -27.56866 -53.03944 35140 ft 516 kts 155°
2026-04-28 00:50 -27.62834 -52.99466 35147 ft 517 kts 154°
2026-04-28 00:50 -27.68818 -52.94971 35138 ft 517 kts 154°
2026-04-28 00:51 -27.74943 -52.90364 35147 ft 517 kts 155°
2026-04-28 00:51 -27.81278 -52.85592 35145 ft 518 kts 154°
2026-04-28 00:52 -27.87755 -52.80703 35136 ft 518 kts 154°
2026-04-28 00:52 -27.90834 -52.78374 34900 ft 518 kts 154°
2026-04-28 00:52 -27.93921 -52.76043 34626 ft 515 kts 154°
2026-04-28 00:52 -27.96920 -52.73780 34366 ft 513 kts 154°
2026-04-28 00:53 -27.99926 -52.71505 34105 ft 511 kts 154°
2026-04-28 00:53 -28.02877 -52.69260 33851 ft 510 kts 155°
2026-04-28 00:53 -28.05919 -52.66955 33580 ft 511 kts 155°
2026-04-28 00:53 -28.08928 -52.64678 33321 ft 511 kts 155°
2026-04-28 00:54 -28.11987 -52.62359 33058 ft 511 kts 154°
2026-04-28 00:54 -28.15011 -52.60065 32786 ft 511 kts 155°
2026-04-28 00:54 -28.18034 -52.57773 32531 ft 512 kts 155°
2026-04-28 00:54 -28.21083 -52.55452 32265 ft 512 kts 155°
2026-04-28 00:55 -28.24161 -52.53109 32003 ft 513 kts 155°
2026-04-28 00:55 -28.27214 -52.50785 31732 ft 513 kts 155°
2026-04-28 00:55 -28.30176 -52.48529 31481 ft 513 kts 155°
2026-04-28 00:55 -28.33122 -52.46284 31226 ft 514 kts 155°
2026-04-28 00:56 -28.36080 -52.44024 30968 ft 514 kts 154°
2026-04-28 00:56 -28.39051 -52.41752 30713 ft 514 kts 154°
2026-04-28 00:56 -28.41998 -52.39502 30361 ft 514 kts 155°
2026-04-28 00:56 -28.44987 -52.37221 29844 ft 515 kts 155°
2026-04-28 00:57 -28.47932 -52.34970 29211 ft 515 kts 153°
2026-04-28 00:57 -28.50895 -52.32703 28550 ft 515 kts 153°
2026-04-28 00:57 -28.54011 -52.30318 28053 ft 508 kts 153°
2026-04-28 00:57 -28.57187 -52.27875 27551 ft 501 kts 153°
2026-04-28 00:58 -28.60339 -52.25454 27011 ft 496 kts 153°
2026-04-28 00:58 -28.63447 -52.23069 26479 ft 489 kts 153°
2026-04-28 00:58 -28.66499 -52.20729 25956 ft 484 kts 153°
2026-04-28 00:58 -28.69555 -52.18374 25431 ft 478 kts 153°
2026-04-28 00:59 -28.72594 -52.16034 24915 ft 472 kts 152°
2026-04-28 00:59 -28.75567 -52.13749 24415 ft 466 kts 152°
2026-04-28 00:59 -28.78492 -52.11494 23922 ft 460 kts 152°
2026-04-28 00:59 -28.81380 -52.09265 23438 ft 454 kts 152°
2026-04-28 01:00 -28.84243 -52.07054 22962 ft 448 kts 152°
2026-04-28 01:00 -28.87073 -52.04858 22476 ft 443 kts 152°
2026-04-28 01:00 -28.89859 -52.02702 21989 ft 437 kts 152°
2026-04-28 01:00 -28.92584 -52.00584 21500 ft 432 kts 152°
2026-04-28 01:01 -28.95338 -51.98443 21006 ft 428 kts 153°
2026-04-28 01:01 -28.98036 -51.96352 20507 ft 423 kts 152°
2026-04-28 01:01 -29.00706 -51.94282 20004 ft 419 kts 152°
2026-04-28 01:01 -29.03102 -51.92418 19573 ft 415 kts 152°
2026-04-28 01:02 -29.05457 -51.90588 19138 ft 411 kts 152°
2026-04-28 01:02 -29.07818 -51.88753 18695 ft 407 kts 152°
2026-04-28 01:02 -29.10143 -51.86946 18290 ft 403 kts 152°
2026-04-28 01:02 -29.12455 -51.85141 17880 ft 399 kts 152°
2026-04-28 01:03 -29.14858 -51.83268 17445 ft 395 kts 152°
2026-04-28 01:03 -29.17253 -51.81403 17005 ft 391 kts 152°
2026-04-28 01:03 -29.19529 -51.79573 16587 ft 389 kts 149°
2026-04-28 01:03 -29.21718 -51.77550 16173 ft 388 kts 144°
2026-04-28 01:04 -29.23822 -51.75378 15833 ft 383 kts 143°
2026-04-28 01:04 -29.25762 -51.73327 15407 ft 370 kts 143°
2026-04-28 01:04 -29.27689 -51.71283 14884 ft 356 kts 143°
2026-04-28 01:04 -29.29611 -51.69251 14421 ft 346 kts 143°
2026-04-28 01:05 -29.31383 -51.67388 14097 ft 341 kts 143°
2026-04-28 01:05 -29.33118 -51.65566 13799 ft 336 kts 143°
2026-04-28 01:05 -29.34814 -51.63784 13501 ft 331 kts 143°
2026-04-28 01:05 -29.36504 -51.62009 13202 ft 326 kts 143°
2026-04-28 01:06 -29.38178 -51.60249 12894 ft 322 kts 143°
2026-04-28 01:06 -29.39814 -51.58528 12554 ft 320 kts 143°
2026-04-28 01:06 -29.41430 -51.56830 12201 ft 317 kts 143°
2026-04-28 01:06 -29.43058 -51.55118 11842 ft 315 kts 143°
2026-04-28 01:07 -29.44693 -51.53399 11489 ft 313 kts 142°
2026-04-28 01:07 -29.46363 -51.51641 11131 ft 310 kts 142°
2026-04-28 01:07 -29.48023 -51.49893 10773 ft 306 kts 142°
2026-04-28 01:07 -29.49678 -51.48148 10500 ft 300 kts 141°
2026-04-28 01:08 -29.51274 -51.46460 10319 ft 291 kts 141°
2026-04-28 01:08 -29.52779 -51.44869 10180 ft 285 kts 141°
2026-04-28 01:08 -29.54371 -51.43189 9908 ft 284 kts 141°
2026-04-28 01:08 -29.55934 -51.41541 9551 ft 283 kts 140°
2026-04-28 01:09 -29.57497 -51.39891 9205 ft 282 kts 140°
2026-04-28 01:09 -29.58927 -51.38379 8893 ft 280 kts 140°
2026-04-28 01:09 -29.60339 -51.36883 8583 ft 278 kts 140°
2026-04-28 01:09 -29.61952 -51.35540 8220 ft 276 kts 161°
2026-04-28 01:10 -29.64003 -51.35187 8128 ft 273 kts 190°
2026-04-28 01:10 -29.66031 -51.35800 8136 ft 272 kts 201°
2026-04-28 01:10 -29.67989 -51.36572 8131 ft 272 kts 201°
2026-04-28 01:10 -29.69833 -51.37295 8129 ft 272 kts 201°
2026-04-28 01:11 -29.71820 -51.37954 8128 ft 273 kts 195°
2026-04-28 01:11 -29.73834 -51.38393 8065 ft 270 kts 192°
2026-04-28 01:11 -29.75834 -51.38750 7659 ft 270 kts 191°
2026-04-28 01:11 -29.77690 -51.39074 7270 ft 270 kts 191°
2026-04-28 01:12 -29.79660 -51.39418 6907 ft 267 kts 191°
2026-04-28 01:12 -29.81649 -51.39769 6534 ft 265 kts 191°
2026-04-28 01:12 -29.83448 -51.40089 6188 ft 264 kts 191°
2026-04-28 01:12 -29.85426 -51.40439 5814 ft 262 kts 191°
2026-04-28 01:13 -29.87361 -51.40786 5436 ft 260 kts 192°
2026-04-28 01:13 -29.91204 -51.41831 4660 ft 257 kts 195°
2026-04-28 01:13 -29.93076 -51.42269 4297 ft 256 kts 193°
2026-04-28 01:14 -29.94948 -51.42598 3928 ft 256 kts 190°
2026-04-28 01:14 -29.96886 -51.42633 3518 ft 260 kts 168°
2026-04-28 01:14 -29.98517 -51.41420 3282 ft 259 kts 128°
2026-04-28 01:14 -29.99126 -51.39416 3094 ft 253 kts 95°
2026-04-28 01:15 -29.99155 -51.37465 2915 ft 236 kts 90°
2026-04-28 01:15 -29.99130 -51.35604 2905 ft 223 kts 90°
2026-04-28 01:15 -29.99130 -51.33878 2693 ft 207 kts 91°
2026-04-28 01:15 -29.99155 -51.32271 2416 ft 191 kts 91°
2026-04-28 01:16 -29.99188 -51.30798 2129 ft 176 kts 92°
2026-04-28 01:16 -29.99219 -51.29428 1867 ft 161 kts 91°
2026-04-28 01:16 -29.99247 -51.28158 1653 ft 157 kts 91°
2026-04-28 01:16 -29.99272 -51.26903 1463 ft 155 kts 91°
2026-04-28 01:17 -29.99297 -51.25674 1274 ft 151 kts 90°
2026-04-28 01:17 -29.99321 -51.24480 1082 ft 149 kts 90°
2026-04-28 01:17 -29.99344 -51.23284 886 ft 148 kts 90°
2026-04-28 01:17 -29.99367 -51.22055 679 ft 148 kts 90°
2026-04-28 01:18 -29.99391 -51.20829 471 ft 148 kts 90°
2026-04-28 01:18 -29.99413 -51.19548 256 ft 147 kts 88°
2026-04-28 01:18 -29.99433 -51.18339 46 ft 148 kts 91°
2026-04-28 01:18 -29.99457 -51.17248 19 ft 114 kts 91°
2026-04-28 01:19 -29.99472 -51.16537 21 ft 64 kts 91°
2026-04-28 01:19 -29.99458 -51.16246 22 ft 6 kts 36°
2026-04-28 01:19 -29.99454 -51.16243 22 ft 1 kts 29°
2026-04-28 01:19 -29.99431 -51.16234 22 ft 5 kts
2026-04-28 01:20 -29.99402 -51.16232 22 ft 0 kts
2026-04-28 01:21 -29.99399 -51.16232 22 ft 1 kts
2026-04-28 01:22 -29.99385 -51.16231 22 ft 2 kts
2026-04-28 01:22 -29.99357 -51.16230 22 ft 4 kts
2026-04-28 01:22 -29.99314 -51.16239 22 ft 7 kts 332°
2026-04-28 01:22 -29.99288 -51.16301 22 ft 10 kts 277°
2026-04-28 01:23 -29.99285 -51.16397 21 ft 13 kts 269°
2026-04-28 01:23 -29.99283 -51.16523 18 ft 17 kts 271°
2026-04-28 01:23 -29.99279 -51.16664 19 ft 18 kts 271°
2026-04-28 01:23 -29.99276 -51.16813 19 ft 18 kts 271°
2026-04-28 01:24 -29.99274 -51.16964 19 ft 19 kts 271°
2026-04-28 01:24 -29.99270 -51.17123 19 ft 19 kts 271°
2026-04-28 01:24 -29.99266 -51.17283 18 ft 20 kts 271°
2026-04-28 01:24 -29.99230 -51.17386 20 ft 13 kts 342°
2026-04-28 01:25 -29.99166 -51.17400 20 ft 9 kts 358°
2026-04-28 01:25 -29.99116 -51.17401 20 ft 2 kts
2026-04-28 01:25 -29.99106 -51.17401 20 ft 0 kts 360°